This is the latest recevied weather packets stored in our database for station/object K5SVV. If no packets are shown the sender has not sent any weather packets the latest 10 day(s).
| Time | Temp. | Humidity | Pressure | Rain* | Wind** | Luminosity | Snow |
|---|---|---|---|---|---|---|---|
| 1788473708 | 30.56° C | 67% | 1010.6 hPa | 0 mm | - | 173 W/m² | - |
| 1788473426 | 30.56° C | 68% | 1010.9 hPa | 0 mm | - | 169 W/m² | - |
| 1788473099 | 30.56° C | 68% | 1010.9 hPa | 0 mm | - | 163 W/m² | - |
| 1788472796 | 30.56° C | 69% | 1010.7 hPa | 0 mm | - | 161 W/m² | - |
| 1788472493 | 30.56° C | 69% | 1011 hPa | 0 mm | - | 162 W/m² | - |
| 1788472191 | 30.56° C | 69% | 1011 hPa | 0 mm | - | 177 W/m² | - |
| 1788471887 | 31.11° C | 69% | 1011 hPa | 0 mm | - | 240 W/m² | - |
| 1788471581 | 31.11° C | 69% | 1010.8 hPa | 0 mm | - | 218 W/m² | - |
| 1788471277 | 31.11° C | 68% | 1010.9 hPa | 0 mm | - | 263 W/m² | - |
| 1788470972 | 31.11° C | 69% | 1010.9 hPa | 0 mm | - | 310 W/m² | - |
| 1788470668 | 30.56° C | 70% | 1011 hPa | 0 mm | - | 304 W/m² | - |
| 1788470362 | 30.56° C | 69% | 1011.2 hPa | 0 mm | - | 281 W/m² | - |
| 1788470058 | 30.56° C | 70% | 1011.3 hPa | 0 mm | - | 266 W/m² | - |
| 1788469754 | 30.56° C | 70% | 1011.2 hPa | 0 mm | - | 228 W/m² | - |
| 1788469454 | 30.56° C | 70% | 1011.2 hPa | 0 mm | - | 225 W/m² | - |
| 1788469149 | 30.56° C | 70% | 1011.1 hPa | 0 mm | - | 208 W/m² | - |
| 1788468849 | 31.11° C | 69% | 1011.2 hPa | 0 mm | - | 224 W/m² | - |
| 1788468543 | 31.11° C | 68% | 1011.2 hPa | 0 mm | - | 247 W/m² | - |
| 1788468239 | 30.56° C | 69% | 1011.5 hPa | 0 mm | - | 268 W/m² | - |
| 1788467935 | 30.56° C | 69% | 1011.4 hPa | 0 mm | - | 270 W/m² | - |
| 1788467631 | 31.11° C | 69% | 1011.4 hPa | 0 mm | - | 291 W/m² | - |
| 1788467329 | 31.11° C | 68% | 1011.5 hPa | 0 mm | - | 315 W/m² | - |
| 1788467026 | 31.11° C | 69% | 1011.6 hPa | 0 mm | - | 319 W/m² | - |
| 1788466726 | 31.11° C | 68% | 1011.7 hPa | 0 mm | - | 321 W/m² | - |
| 1788466421 | 31.11° C | 70% | 1011.4 hPa | 0 mm | - | 332 W/m² | - |
* Rain latest hour (hover to see other rain measurements)
** Current wind speed in m/s (hover to see current wind gust speed)